| time (UTC) | temp F | wind direction | speed MPH | gust MPH | rain 1hr in | rain 24hr in | rain mn in | humidity % | barometer mb |
| 20260902051531 | 56 | 261 | 0.0 | 5.0 | 0.00 | 0.00 | 0.00 | 94 | 1008.3 |
| 20260902051032 | 56 | 259 | 1.0 | 5.0 | 0.00 | 0.00 | 0.00 | 94 | 1008.2 |
| 20260902050530 | 56 | 276 | 3.0 | 5.0 | 0.00 | 0.00 | 0.00 | 94 | 1008.2 |
| 20260902050252 | 56 | 254 | 0.0 | 6.0 | 0.00 | 0.00 | 0.00 | 94 | 1008.1 |
| 20260902045530 | 55 | 268 | 3.0 | 6.0 | 0.00 | 0.00 | 0.00 | 95 | 1008.1 |
| 20260902045030 | 55 | 300 | 3.0 | 7.0 | 0.00 | 0.00 | 0.00 | 95 | 1008.1 |
| 20260902044525 | 55 | 316 | 4.0 | 7.0 | 0.00 | 0.00 | 0.00 | 95 | 1008.2 |
| 20260902044026 | 55 | 281 | 2.0 | 5.0 | 0.00 | 0.00 | 0.00 | 95 | 1008.2 |
| 20260902043744 | 55 | 272 | 1.0 | 9.0 | 0.00 | 0.00 | 0.00 | 95 | 1008.1 |
| 20260902043239 | 55 | 283 | 3.0 | 9.0 | 0.00 | 0.00 | 0.00 | 95 | 1008.1 |
| 20260902042516 | 55 | 272 | 1.0 | 5.0 | 0.00 | 0.00 | 0.00 | 95 | 1008.2 |
| 20260902042016 | 55 | 282 | 2.0 | 5.0 | 0.00 | 0.00 | 0.00 | 95 | 1008.2 |
| 20260902041517 | 55 | 285 | 2.0 | 5.0 | 0.00 | 0.00 | 0.00 | 95 | 1008.1 |
| 20260902041015 | 55 | 254 | 0.0 | 4.0 | 0.00 | 0.00 | 0.00 | 95 | 1008.2 |
| 20260902040515 | 55 | 282 | 0.0 | 3.0 | 0.00 | 0.00 | 0.00 | 95 | 1008.1 |
| 20260902040016 | 55 | 282 | 1.0 | 6.0 | 0.00 | 0.00 | 0.00 | 95 | 1008.1 |
| 20260902035514 | 55 | 286 | 1.0 | 7.0 | 0.00 | 0.00 | 0.00 | 96 | 1008.1 |
| 20260902035014 | 55 | 272 | 3.0 | 7.0 | 0.00 | 0.00 | 0.00 | 96 | 1008.2 |
| 20260902034515 | 55 | 279 | 1.0 | 5.0 | 0.00 | 0.00 | 0.00 | 96 | 1008.2 |
| 20260902034014 | 55 | 288 | 3.0 | 5.0 | 0.00 | 0.00 | 0.00 | 96 | 1008.2 |
| 20260902033514 | 55 | 295 | 2.0 | 6.0 | 0.00 | 0.00 | 0.00 | 96 | 1008.2 |
| 20260902033014 | 54 | 266 | 1.0 | 6.0 | 0.00 | 0.00 | 0.00 | 96 | 1008.3 |
| 20260902032514 | 54 | 278 | 1.0 | 3.0 | 0.00 | 0.00 | 0.00 | 95 | 1008.3 |
| 20260902032233 | 54 | 279 | 0.0 | 3.0 | 0.00 | 0.00 | 0.00 | 96 | 1008.2 |
| 20260902031513 | 54 | 298 | 1.0 | 3.0 | 0.00 | 0.00 | 0.00 | 95 | 1008.3 |
| 20260902031014 | 54 | 278 | 0.0 | 3.0 | 0.00 | 0.00 | 0.00 | 95 | 1008.3 |
| 20260902030513 | 54 | 310 | 1.0 | 3.0 | 0.00 | 0.00 | 0.00 | 95 | 1008.3 |
| 20260902030013 | 54 | 290 | 1.0 | 3.0 | 0.00 | 0.00 | 0.00 | 95 | 1008.3 |
| 20260902025514 | 54 | 73 | 0.0 | 2.0 | 0.00 | 0.00 | 0.00 | 95 | 1008.3 |
| 20260902025012 | 54 | 73 | 0.0 | 0.0 | 0.00 | 0.00 | 0.00 | 96 | 1008.3 |
| 20260902024513 | 53 | 73 | 0.0 | 1.0 | 0.00 | 0.00 | 0.00 | 95 | 1008.3 |
| 20260902024013 | 53 | 73 | 0.0 | 2.0 | 0.00 | 0.00 | 0.00 | 95 | 1008.4 |
| 20260902023513 | 53 | 73 | 0.0 | 2.0 | 0.00 | 0.00 | 0.00 | 95 | 1008.4 |
| 20260902023013 | 53 | 73 | 0.0 | 0.0 | 0.00 | 0.00 | 0.00 | 95 | 1008.3 |
| 20260902022513 | 53 | 73 | 0.0 | 0.0 | 0.00 | 0.00 | 0.00 | 95 | 1008.3 |
| 20260902022008 | 53 | 73 | 0.0 | 0.0 | 0.00 | 0.00 | 0.00 | 95 | 1008.2 |
| 20260902021503 | 53 | 73 | 0.0 | 0.0 | 0.00 | 0.00 | 0.00 | 95 | 1008.3 |
| 20260902021005 | 53 | 73 | 0.0 | 0.0 | 0.00 | 0.00 | 0.00 | 95 | 1008.2 |
| 20260902020505 | 53 | 73 | 0.0 | 0.0 | 0.00 | 0.00 | 0.00 | 95 | 1008.3 |
| 20260902020007 | 53 | 73 | 0.0 | 0.0 | 0.00 | 0.00 | 0.00 | 95 | 1008.2 |
| 20260902015505 | 53 | 73 | 0.0 | 0.0 | 0.00 | 0.00 | 0.00 | 95 | 1008.2 |
| 20260902015006 | 53 | 73 | 0.0 | 0.0 | 0.00 | 0.00 | 0.00 | 95 | 1008.2 |
| 20260902014506 | 53 | 73 | 0.0 | 0.0 | 0.00 | 0.00 | 0.00 | 95 | 1008.2 |
| 20260902014005 | 53 | 73 | 0.0 | 0.0 | 0.00 | 0.00 | 0.00 | 95 | 1008.1 |
| 20260902013506 | 53 | 73 | 0.0 | 0.0 | 0.00 | 0.00 | 0.00 | 95 | 1008.2 |
| 20260902013005 | 53 | 73 | 0.0 | 0.0 | 0.00 | 0.00 | 0.00 | 95 | 1008.2 |
| 20260902012505 | 53 | 73 | 0.0 | 0.0 | 0.00 | 0.00 | 0.00 | 95 | 1008.2 |
| 20260902012006 | 53 | 73 | 0.0 | 0.0 | 0.00 | 0.00 | 0.00 | 95 | 1008.2 |
| 20260902011504 | 53 | 73 | 0.0 | 0.0 | 0.00 | 0.00 | 0.00 | 95 | 1008.2 |
| 20260902011227 | 53 | 73 | 0.0 | 0.0 | 0.00 | 0.00 | 0.00 | 94 | 1008.2 |
| 20260902010505 | 53 | 73 | 0.0 | 0.0 | 0.00 | 0.00 | 0.00 | 95 | 1008.3 |
| 20260902010005 | 54 | 73 | 0.0 | 0.0 | 0.00 | 0.00 | 0.00 | 95 | 1008.3 |
| 20260902005504 | 54 | 73 | 0.0 | 0.0 | 0.00 | 0.00 | 0.00 | 95 | 1008.1 |
| 20260902005006 | 54 | 73 | 0.0 | 0.0 | 0.00 | 0.00 | 0.00 | 95 | 1008.2 |
| 20260902004505 | 54 | 73 | 0.0 | 0.0 | 0.00 | 0.00 | 0.00 | 94 | 1008.2 |
| 20260902004004 | 53 | 73 | 0.0 | 0.0 | 0.00 | 0.00 | 0.00 | 94 | 1008.2 |
| 20260902003723 | 54 | 73 | 0.0 | 0.0 | 0.00 | 0.00 | 0.00 | 94 | 1008.2 |
| 20260902003006 | 54 | 73 | 0.0 | 0.0 | 0.00 | 0.00 | 0.00 | 95 | 1008.2 |
| 20260902002505 | 54 | 73 | 0.0 | 0.0 | 0.00 | 0.00 | 0.00 | 95 | 1008.2 |
| 20260902002452 | 54 | 73 | 0.0 | 0.0 | 0.00 | 0.00 | 0.00 | 94 | 1008.2 |
| 20260902001506 | 54 | 73 | 0.0 | 0.0 | 0.00 | 0.00 | 0.00 | 94 | 1008.2 |
| 20260902001231 | 54 | 73 | 0.0 | 0.0 | 0.00 | 0.00 | 0.00 | 94 | 1008.0 |
| 20260902000505 | 54 | 73 | 0.0 | 0.0 | 0.00 | 0.00 | 0.00 | 94 | 1008.1 |
| 20260902000005 | 54 | 73 | 0.0 | 0.0 | 0.00 | 0.00 | 0.00 | 94 | 1008.2 |
| 20260901235728 | 54 | 73 | 0.0 | 0.0 | 0.00 | 0.00 | 0.00 | 94 | 1008.1 |
| 20260901235005 | 54 | 73 | 0.0 | 0.0 | 0.00 | 0.00 | 0.00 | 94 | 1008.2 |
| 20260901234506 | 54 | 73 | 0.0 | 0.0 | 0.00 | 0.00 | 0.00 | 94 | 1008.2 |
| 20260901234005 | 54 | 73 | 0.0 | 0.0 | 0.00 | 0.00 | 0.00 | 94 | 1008.2 |
| 20260901233505 | 55 | 73 | 0.0 | 0.0 | 0.00 | 0.00 | 0.00 | 94 | 1008.2 |
| 20260901233005 | 55 | 73 | 0.0 | 0.0 | 0.00 | 0.00 | 0.00 | 94 | 1008.2 |
| 20260901232725 | 55 | 73 | 0.0 | 0.0 | 0.00 | 0.00 | 0.00 | 94 | 1008.3 |
| 20260901232005 | 55 | 73 | 0.0 | 0.0 | 0.00 | 0.00 | 0.00 | 94 | 1008.3 |
| 20260901231724 | 55 | 73 | 0.0 | 0.0 | 0.00 | 0.00 | 0.00 | 94 | 1008.3 |
| 20260901231005 | 55 | 73 | 0.0 | 0.0 | 0.00 | 0.00 | 0.00 | 94 | 1008.3 |
| 20260901230730 | 55 | 73 | 0.0 | 0.0 | 0.00 | 0.00 | 0.00 | 94 | 1008.4 |
| 20260901230006 | 55 | 73 | 0.0 | 0.0 | 0.00 | 0.00 | 0.00 | 94 | 1008.3 |
| 20260901225736 | 56 | 73 | 0.0 | 0.0 | 0.00 | 0.00 | 0.00 | 94 | 1008.4 |
| 20260901225005 | 56 | 73 | 0.0 | 0.0 | 0.00 | 0.00 | 0.00 | 94 | 1008.3 |
| 20260901224956 | 56 | 73 | 0.0 | 0.0 | 0.00 | 0.00 | 0.00 | 94 | 1008.3 |
| 20260901224005 | 56 | 73 | 0.0 | 0.0 | 0.00 | 0.00 | 0.00 | 94 | 1008.3 |
| 20260901223505 | 56 | 73 | 0.0 | 0.0 | 0.00 | 0.00 | 0.00 | 94 | 1008.4 |
| 20260901223006 | 56 | 73 | 0.0 | 0.0 | 0.00 | 0.00 | 0.00 | 94 | 1008.3 |
| 20260901222505 | 56 | 73 | 0.0 | 0.0 | 0.00 | 0.00 | 0.00 | 94 | 1008.3 |
| 20260901222005 | 56 | 73 | 0.0 | 0.0 | 0.00 | 0.00 | 0.00 | 94 | 1008.3 |
| 20260901221505 | 57 | 73 | 0.0 | 0.0 | 0.00 | 0.00 | 0.00 | 94 | 1008.4 |
| 20260901221227 | 57 | 73 | 0.0 | 0.0 | 0.00 | 0.00 | 0.00 | 94 | 1008.3 |
| 20260901220505 | 57 | 73 | 0.0 | 0.0 | 0.00 | 0.00 | 0.00 | 94 | 1008.4 |
| 20260901220006 | 56 | 73 | 0.0 | 0.0 | 0.00 | 0.00 | 0.00 | 93 | 1008.5 |
| 20260901215505 | 57 | 73 | 0.0 | 0.0 | 0.00 | 0.00 | 0.00 | 93 | 1008.4 |
| 20260901215005 | 57 | 73 | 0.0 | 0.0 | 0.00 | 0.00 | 0.00 | 93 | 1008.3 |
| 20260901214504 | 57 | 73 | 0.0 | 0.0 | 0.00 | 0.00 | 0.00 | 93 | 1008.4 |
| 20260901214005 | 57 | 73 | 0.0 | 0.0 | 0.00 | 0.00 | 0.00 | 93 | 1008.4 |
| 20260901213718 | 57 | 73 | 0.0 | 0.0 | 0.00 | 0.00 | 0.00 | 94 | 1008.3 |
| 20260901212957 | 57 | 73 | 0.0 | 0.0 | 0.00 | 0.00 | 0.00 | 93 | 1008.3 |
| 20260901212452 | 57 | 73 | 0.0 | 0.0 | 0.00 | 0.00 | 0.00 | 93 | 1008.4 |
| 20260901212221 | 58 | 73 | 0.0 | 0.0 | 0.00 | 0.00 | 0.00 | 93 | 1008.3 |
| 20260901211446 | 58 | 73 | 0.0 | 0.0 | 0.00 | 0.00 | 0.00 | 93 | 1008.3 |
| 20260901210945 | 58 | 73 | 0.0 | 0.0 | 0.00 | 0.00 | 0.00 | 93 | 1008.4 |
| 20260901210446 | 58 | 73 | 0.0 | 0.0 | 0.00 | 0.00 | 0.00 | 93 | 1008.3 |
| 20260901205942 | 58 | 73 | 0.0 | 0.0 | 0.00 | 0.00 | 0.00 | 92 | 1008.3 |
| 20260901205441 | 58 | 73 | 0.0 | 0.0 | 0.00 | 0.00 | 0.00 | 92 | 1008.3 |
| 20260901205432 | 58 | 73 | 0.0 | 0.0 | 0.00 | 0.00 | 0.00 | 92 | 1008.4 |
| 20260901204438 | 58 | 73 | 0.0 | 0.0 | 0.00 | 0.00 | 0.00 | 92 | 1008.4 |
| 20260901203939 | 58 | 73 | 0.0 | 0.0 | 0.00 | 0.00 | 0.00 | 92 | 1008.4 |
| 20260901203923 | 59 | 73 | 0.0 | 0.0 | 0.00 | 0.00 | 0.00 | 92 | 1008.4 |
| 20260901202937 | 59 | 73 | 0.0 | 0.0 | 0.00 | 0.00 | 0.00 | 92 | 1008.5 |
| 20260901202659 | 59 | 73 | 0.0 | 0.0 | 0.00 | 0.00 | 0.00 | 92 | 1008.4 |
| 20260901201935 | 59 | 73 | 0.0 | 0.0 | 0.00 | 0.00 | 0.00 | 92 | 1008.4 |
| 20260901201433 | 60 | 73 | 0.0 | 0.0 | 0.00 | 0.00 | 0.00 | 92 | 1008.3 |
| 20260901200932 | 60 | 73 | 0.0 | 0.0 | 0.00 | 0.00 | 0.00 | 92 | 1008.4 |
| 20260901200652 | 60 | 73 | 0.0 | 0.0 | 0.00 | 0.00 | 0.00 | 92 | 1008.4 |
| 20260901195930 | 60 | 73 | 0.0 | 0.0 | 0.00 | 0.00 | 0.00 | 92 | 1008.4 |
| 20260901195431 | 60 | 73 | 0.0 | 0.0 | 0.00 | 0.00 | 0.00 | 91 | 1008.4 |
| 20260901194928 | 61 | 73 | 0.0 | 0.0 | 0.00 | 0.00 | 0.00 | 92 | 1008.3 |
| 20260901194429 | 61 | 73 | 0.0 | 0.0 | 0.00 | 0.00 | 0.00 | 91 | 1008.4 |
| 20260901193926 | 61 | 73 | 0.0 | 0.0 | 0.00 | 0.00 | 0.00 | 92 | 1008.4 |
| 20260901193426 | 61 | 73 | 0.0 | 0.0 | 0.00 | 0.00 | 0.00 | 91 | 1008.3 |
| 20260901192924 | 61 | 73 | 0.0 | 0.0 | 0.00 | 0.00 | 0.00 | 91 | 1008.4 |
| 20260901192422 | 61 | 73 | 0.0 | 2.0 | 0.00 | 0.00 | 0.00 | 91 | 1008.3 |
| 20260901191922 | 61 | 73 | 0.0 | 2.0 | 0.00 | 0.00 | 0.00 | 91 | 1008.3 |
| 20260901191423 | 61 | 73 | 1.0 | 3.0 | 0.00 | 0.00 | 0.00 | 91 | 1008.4 |
| 20260901190912 | 62 | 73 | 2.0 | 3.0 | 0.00 | 0.00 | 0.00 | 90 | 1008.4 |
| 20260901190404 | 62 | 73 | 1.0 | 3.0 | 0.00 | 0.00 | 0.00 | 90 | 1008.3 |
| 20260901190127 | 62 | 73 | 2.0 | 3.0 | 0.00 | 0.00 | 0.00 | 90 | 1008.3 |
| 20260901185405 | 62 | 73 | 2.0 | 3.0 | 0.00 | 0.00 | 0.00 | 89 | 1008.3 |
| 20260901185128 | 62 | 73 | 2.0 | 3.0 | 0.00 | 0.00 | 0.00 | 89 | 1008.2 |
| 20260901184406 | 62 | 73 | 2.0 | 3.0 | 0.00 | 0.00 | 0.00 | 89 | 1008.1 |
| 20260901183905 | 63 | 73 | 0.0 | 2.0 | 0.00 | 0.00 | 0.00 | 88 | 1008.2 |
| 20260901183403 | 63 | 73 | 2.0 | 4.0 | 0.00 | 0.00 | 0.00 | 88 | 1008.2 |
| 20260901182905 | 63 | 73 | 2.0 | 4.0 | 0.00 | 0.00 | 0.00 | 88 | 1008.2 |
| 20260901182404 | 63 | 73 | 2.0 | 4.0 | 0.00 | 0.00 | 0.00 | 88 | 1008.2 |
| 20260901181905 | 63 | 73 | 3.0 | 4.0 | 0.00 | 0.00 | 0.00 | 87 | 1008.2 |
| 20260901181404 | 64 | 73 | 2.0 | 3.0 | 0.00 | 0.00 | 0.00 | 87 | 1008.1 |
| 20260901180904 | 64 | 73 | 2.0 | 2.0 | 0.00 | 0.00 | 0.00 | 86 | 1008.1 |
| 20260901180404 | 64 | 73 | 0.0 | 2.0 | 0.00 | 0.00 | 0.00 | 85 | 1008.1 |
| 20260901175903 | 64 | 73 | 1.0 | 3.0 | 0.00 | 0.00 | 0.00 | 85 | 1008.1 |
| 20260901175404 | 64 | 73 | 1.0 | 4.0 | 0.00 | 0.00 | 0.00 | 85 | 1008.1 |
| 20260901174903 | 65 | 73 | 2.0 | 4.0 | 0.00 | 0.00 | 0.00 | 84 | 1008.0 |
| 20260901174403 | 65 | 73 | 1.0 | 3.0 | 0.00 | 0.00 | 0.00 | 83 | 1008.0 |
| 20260901173903 | 65 | 72 | 1.0 | 4.0 | 0.00 | 0.00 | 0.00 | 83 | 1007.9 |
| 20260901173404 | 65 | 75 | 2.0 | 5.0 | 0.00 | 0.00 | 0.00 | 82 | 1007.9 |
| 20260901172903 | 65 | 73 | 2.0 | 5.0 | 0.00 | 0.00 | 0.00 | 82 | 1007.9 |
| 20260901172402 | 66 | 54 | 2.0 | 5.0 | 0.00 | 0.00 | 0.00 | 81 | 1007.9 |
| 20260901171902 | 66 | 47 | 2.0 | 6.0 | 0.00 | 0.00 | 0.00 | 80 | 1007.9 |
| 20260901171622 | 66 | 54 | 4.0 | 6.0 | 0.00 | 0.00 | 0.00 | 79 | 1007.9 |
| 20260901170902 | 66 | 54 | 2.0 | 5.0 | 0.00 | 0.00 | 0.00 | 78 | 1007.8 |
| 20260901170403 | 67 | 52 | 4.0 | 5.0 | 0.00 | 0.00 | 0.00 | 78 | 1007.7 |
| 20260901165903 | 67 | 54 | 3.0 | 4.0 | 0.00 | 0.00 | 0.00 | 78 | 1007.7 |
| 20260901165401 | 67 | 38 | 2.0 | 4.0 | 0.00 | 0.00 | 0.00 | 77 | 1007.7 |
| 20260901164902 | 67 | 38 | 2.0 | 3.0 | 0.00 | 0.00 | 0.00 | 76 | 1007.7 |
| 20260901164403 | 67 | 38 | 2.0 | 3.0 | 0.00 | 0.00 | 0.00 | 76 | 1007.6 |
| 20260901163903 | 67 | 38 | 2.0 | 3.0 | 0.00 | 0.00 | 0.00 | 76 | 1007.7 |
| 20260901163402 | 67 | 38 | 1.0 | 4.0 | 0.00 | 0.00 | 0.00 | 76 | 1007.7 |
| 20260901162902 | 67 | 38 | 2.0 | 4.0 | 0.00 | 0.00 | 0.00 | 75 | 1007.6 |
| 20260901162628 | 67 | 30 | 3.0 | 4.0 | 0.00 | 0.00 | 0.00 | 73 | 1007.5 |
| 20260901161902 | 68 | 16 | 2.0 | 4.0 | 0.00 | 0.00 | 0.00 | 72 | 1007.5 |
| 20260901161402 | 68 | 25 | 3.0 | 4.0 | 0.00 | 0.00 | 0.00 | 71 | 1007.5 |
| 20260901160903 | 68 | 24 | 2.0 | 4.0 | 0.00 | 0.00 | 0.00 | 71 | 1007.5 |
| 20260901160402 | 69 | 38 | 2.0 | 4.0 | 0.00 | 0.00 | 0.00 | 70 | 1007.5 |
| 20260901155903 | 69 | 38 | 1.0 | 3.0 | 0.00 | 0.00 | 0.00 | 69 | 1007.5 |
| 20260901155402 | 69 | 47 | 2.0 | 4.0 | 0.00 | 0.00 | 0.00 | 69 | 1007.4 |
| 20260901154902 | 69 | 49 | 4.0 | 4.0 | 0.00 | 0.00 | 0.00 | 68 | 1007.4 |
| 20260901154402 | 69 | 56 | 3.0 | 4.0 | 0.00 | 0.00 | 0.00 | 68 | 1007.4 |
| 20260901153902 | 70 | 78 | 3.0 | 4.0 | 0.00 | 0.00 | 0.00 | 67 | 1007.3 |
| 20260901153851 | 71 | 48 | 1.0 | 2.0 | 0.00 | 0.00 | 0.00 | 68 | 1007.2 |
| 20260901152903 | 71 | 48 | 0.0 | 3.0 | 0.00 | 0.00 | 0.00 | 69 | 1007.2 |
| 20260901152402 | 70 | 48 | 1.0 | 3.0 | 0.00 | 0.00 | 0.00 | 69 | 1007.2 |
| 20260901151902 | 70 | 49 | 2.0 | 3.0 | 0.00 | 0.00 | 0.00 | 69 | 1007.2 |
| 20260901151626 | 71 | 49 | 2.0 | 3.0 | 0.00 | 0.00 | 0.00 | 68 | 1007.3 |
| 20260901150904 | 70 | 52 | 1.0 | 3.0 | 0.00 | 0.00 | 0.00 | 69 | 1007.3 |
| 20260901150404 | 70 | 52 | 2.0 | 3.0 | 0.00 | 0.00 | 0.00 | 68 | 1007.2 |
| 20260901145904 | 70 | 63 | 1.0 | 5.0 | 0.00 | 0.00 | 0.00 | 70 | 1007.4 |
| 20260901145621 | 69 | 345 | 2.0 | 6.0 | 0.00 | 0.00 | 0.00 | 71 | 1007.4 |
| 20260901144903 | 69 | 0 | 2.0 | 7.0 | 0.00 | 0.00 | 0.00 | 71 | 1007.4 |
| 20260901144625 | 70 | 268 | 5.0 | 7.0 | 0.00 | 0.00 | 0.00 | 71 | 1007.5 |
| 20260901144127 | 70 | 37 | 2.0 | 5.0 | 0.00 | 0.00 | 0.00 | 72 | 1007.5 |
| 20260901143404 | 69 | 354 | 3.0 | 6.0 | 0.00 | 0.00 | 0.00 | 73 | 1007.5 |
| 20260901142904 | 69 | 13 | 3.0 | 6.0 | 0.00 | 0.00 | 0.00 | 71 | 1007.4 |
| 20260901142403 | 70 | 35 | 3.0 | 5.0 | 0.00 | 0.00 | 0.00 | 71 | 1007.4 |
| 20260901141904 | 70 | 354 | 4.0 | 5.0 | 0.00 | 0.00 | 0.00 | 71 | 1007.4 |
| 20260901141403 | 70 | 329 | 2.0 | 5.0 | 0.00 | 0.00 | 0.00 | 70 | 1007.4 |
| 20260901140903 | 70 | 305 | 3.0 | 5.0 | 0.00 | 0.00 | 0.00 | 71 | 1007.4 |
| 20260901140403 | 70 | 312 | 3.0 | 4.0 | 0.00 | 0.00 | 0.00 | 72 | 1007.5 |
| 20260901135903 | 70 | 289 | 0.0 | 3.0 | 0.00 | 0.00 | 0.00 | 72 | 1007.4 |
| 20260901135402 | 70 | 166 | 2.0 | 3.0 | 0.00 | 0.00 | 0.00 | 72 | 1007.5 |
| 20260901134902 | 70 | 149 | 0.0 | 3.0 | 0.00 | 0.00 | 0.00 | 73 | 1007.5 |
| 20260901134402 | 70 | 193 | 1.0 | 4.0 | 0.00 | 0.00 | 0.00 | 73 | 1007.6 |
| 20260901133902 | 70 | 295 | 3.0 | 4.0 | 0.00 | 0.00 | 0.00 | 73 | 1007.6 |
| 20260901133403 | 69 | 216 | 1.0 | 2.0 | 0.00 | 0.00 | 0.00 | 75 | 1007.7 |
| 20260901132902 | 69 | 214 | 1.0 | 4.0 | 0.00 | 0.00 | 0.00 | 74 | 1007.7 |
| 20260901132402 | 69 | 179 | 2.0 | 4.0 | 0.00 | 0.00 | 0.00 | 73 | 1007.7 |
| 20260901132124 | 69 | 224 | 0.0 | 4.0 | 0.00 | 0.00 | 0.00 | 75 | 1007.7 |
| 20260901131403 | 68 | 251 | 0.0 | 4.0 | 0.00 | 0.00 | 0.00 | 75 | 1007.7 |
| 20260901130903 | 68 | 251 | 1.0 | 5.0 | 0.00 | 0.00 | 0.00 | 74 | 1007.6 |
| 20260901130404 | 69 | 213 | 1.0 | 5.0 | 0.00 | 0.00 | 0.00 | 75 | 1007.6 |
| 20260901125903 | 69 | 282 | 1.0 | 4.0 | 0.00 | 0.00 | 0.00 | 77 | 1007.7 |
| 20260901125403 | 68 | 282 | 1.0 | 3.0 | 0.00 | 0.00 | 0.00 | 76 | 1007.6 |
| 20260901124903 | 68 | 282 | 0.0 | 3.0 | 0.00 | 0.00 | 0.00 | 76 | 1007.6 |
| 20260901124403 | 67 | 282 | 1.0 | 3.0 | 0.00 | 0.00 | 0.00 | 73 | 1007.6 |
| 20260901123903 | 68 | 282 | 2.0 | 3.0 | 0.00 | 0.00 | 0.00 | 77 | 1007.6 |
| 20260901123403 | 68 | 305 | 0.0 | 4.0 | 0.00 | 0.00 | 0.00 | 76 | 1007.7 |
| 20260901122903 | 68 | 306 | 2.0 | 4.0 | 0.00 | 0.00 | 0.00 | 75 | 1007.6 |
| 20260901122403 | 68 | 241 | 0.0 | 3.0 | 0.00 | 0.00 | 0.00 | 73 | 1007.6 |
| 20260901121903 | 68 | 258 | 1.0 | 3.0 | 0.00 | 0.00 | 0.00 | 72 | 1007.6 |
| 20260901121621 | 68 | 258 | 1.0 | 4.0 | 0.00 | 0.00 | 0.00 | 72 | 1007.6 |
| 20260901120903 | 68 | 258 | 2.0 | 4.0 | 0.00 | 0.00 | 0.00 | 73 | 1007.6 |
| 20260901120404 | 69 | 265 | 2.0 | 5.0 | 0.00 | 0.00 | 0.00 | 76 | 1007.6 |
| 20260901120127 | 68 | 295 | 3.0 | 5.0 | 0.00 | 0.00 | 0.00 | 77 | 1007.6 |
| 20260901115627 | 68 | 248 | 1.0 | 3.0 | 0.00 | 0.00 | 0.00 | 78 | 1007.5 |
| 20260901114904 | 67 | 248 | 2.0 | 3.0 | 0.00 | 0.00 | 0.00 | 79 | 1007.4 |
| 20260901114403 | 67 | 248 | 2.0 | 3.0 | 0.00 | 0.00 | 0.00 | 80 | 1007.5 |
| 20260901113903 | 66 | 171 | 1.0 | 3.0 | 0.00 | 0.00 | 0.00 | 84 | 1007.5 |
| 20260901113404 | 65 | 171 | 0.0 | 3.0 | 0.00 | 0.00 | 0.00 | 85 | 1007.6 |
| 20260901113121 | 65 | 169 | 1.0 | 2.0 | 0.00 | 0.00 | 0.00 | 86 | 1007.6 |
| 20260901112402 | 65 | 169 | 0.0 | 3.0 | 0.00 | 0.00 | 0.00 | 86 | 1007.6 |
| 20260901111904 | 64 | 169 | 0.0 | 3.0 | 0.00 | 0.00 | 0.00 | 88 | 1007.5 |
| 20260901111404 | 64 | 303 | 0.0 | 2.0 | 0.00 | 0.00 | 0.00 | 89 | 1007.4 |
| 20260901110903 | 64 | 303 | 1.0 | 2.0 | 0.00 | 0.00 | 0.00 | 89 | 1007.4 |
| 20260901110403 | 64 | 303 | 0.0 | 2.0 | 0.00 | 0.00 | 0.00 | 89 | 1007.5 |
| 20260901105904 | 64 | 303 | 1.0 | 2.0 | 0.00 | 0.00 | 0.00 | 89 | 1007.3 |
| 20260901105404 | 64 | 303 | 2.0 | 2.0 | 0.00 | 0.00 | 0.00 | 88 | 1007.4 |
| 20260901104904 | 64 | 303 | 0.0 | 0.0 | 0.00 | 0.00 | 0.00 | 87 | 1007.4 |
| 20260901104403 | 64 | 303 | 0.0 | 0.0 | 0.00 | 0.00 | 0.00 | 87 | 1007.4 |
| 20260901103904 | 64 | 303 | 0.0 | 0.0 | 0.00 | 0.00 | 0.00 | 87 | 1007.4 |
| 20260901103404 | 65 | 303 | 0.0 | 0.0 | 0.00 | 0.00 | 0.00 | 87 | 1007.4 |
| 20260901102903 | 65 | 303 | 0.0 | 0.0 | 0.00 | 0.00 | 0.00 | 86 | 1007.4 |
| 20260901102403 | 65 | 303 | 0.0 | 0.0 | 0.00 | 0.00 | 0.00 | 86 | 1007.4 |
| 20260901101903 | 65 | 303 | 0.0 | 0.0 | 0.00 | 0.00 | 0.00 | 86 | 1007.3 |
| 20260901101403 | 65 | 303 | 0.0 | 1.0 | 0.00 | 0.00 | 0.00 | 86 | 1007.3 |
| 20260901100903 | 65 | 303 | 0.0 | 1.0 | 0.00 | 0.00 | 0.00 | 84 | 1007.2 |
| 20260901100403 | 65 | 303 | 0.0 | 1.0 | 0.00 | 0.00 | 0.00 | 84 | 1007.1 |
| 20260901095903 | 65 | 303 | 0.0 | 3.0 | 0.00 | 0.00 | 0.00 | 83 | 1007.3 |
| 20260901095403 | 66 | 303 | 0.0 | 3.0 | 0.00 | 0.00 | 0.00 | 82 | 1007.2 |
| 20260901094904 | 66 | 39 | 0.0 | 2.0 | 0.00 | 0.00 | 0.00 | 82 | 1007.2 |
| 20260901094403 | 66 | 39 | 1.0 | 2.0 | 0.00 | 0.00 | 0.00 | 82 | 1007.1 |
| 20260901094129 | 66 | 39 | 0.0 | 0.0 | 0.00 | 0.00 | 0.00 | 81 | 1007.1 |
| 20260901093630 | 66 | 39 | 0.0 | 1.0 | 0.00 | 0.00 | 0.00 | 81 | 1007.1 |
| 20260901092903 | 66 | 39 | 1.0 | 1.0 | 0.00 | 0.00 | 0.00 | 82 | 1007.2 |
| 20260901092403 | 66 | 39 | 1.0 | 2.0 | 0.00 | 0.00 | 0.00 | 82 | 1007.1 |
| 20260901091903 | 66 | 39 | 0.0 | 2.0 | 0.00 | 0.00 | 0.00 | 82 | 1007.0 |
| 20260901091403 | 66 | 39 | 2.0 | 2.0 | 0.00 | 0.00 | 0.00 | 82 | 1007.0 |
| 20260901090903 | 66 | 39 | 0.0 | 0.0 | 0.00 | 0.00 | 0.00 | 82 | 1007.0 |
| 20260901090403 | 66 | 39 | 0.0 | 1.0 | 0.00 | 0.00 | 0.00 | 83 | 1007.1 |
| 20260901085903 | 65 | 39 | 0.0 | 3.0 | 0.00 | 0.00 | 0.00 | 83 | 1007.0 |
| 20260901085405 | 65 | 39 | 1.0 | 3.0 | 0.00 | 0.00 | 0.00 | 83 | 1007.0 |
| 20260901084905 | 65 | 39 | 2.0 | 3.0 | 0.00 | 0.00 | 0.00 | 84 | 1007.1 |
| 20260901084404 | 65 | 39 | 2.0 | 3.0 | 0.00 | 0.00 | 0.00 | 85 | 1007.1 |
| 20260901083905 | 65 | 135 | 2.0 | 3.0 | 0.00 | 0.00 | 0.00 | 85 | 1007.0 |
| 20260901083404 | 65 | 135 | 2.0 | 3.0 | 0.00 | 0.00 | 0.00 | 86 | 1007.1 |
| 20260901082904 | 65 | 135 | 0.0 | 3.0 | 0.00 | 0.00 | 0.00 | 86 | 1007.1 |
| 20260901082405 | 65 | 135 | 1.0 | 3.0 | 0.00 | 0.00 | 0.00 | 87 | 1007.1 |
| 20260901081905 | 64 | 135 | 0.0 | 0.0 | 0.00 | 0.00 | 0.00 | 88 | 1007.1 |
| 20260901081403 | 64 | 135 | 0.0 | 0.0 | 0.00 | 0.00 | 0.00 | 88 | 1007.1 |
| 20260901080903 | 64 | 135 | 0.0 | 0.0 | 0.00 | 0.00 | 0.00 | 87 | 1007.1 |
| 20260901080403 | 64 | 135 | 0.0 | 0.0 | 0.00 | 0.00 | 0.00 | 86 | 1007.1 |
| 20260901075903 | 64 | 135 | 0.0 | 0.0 | 0.00 | 0.00 | 0.00 | 86 | 1007.1 |
| 20260901075403 | 64 | 135 | 0.0 | 0.0 | 0.00 | 0.00 | 0.00 | 86 | 1007.1 |
| 20260901074903 | 64 | 135 | 0.0 | 0.0 | 0.00 | 0.00 | 0.00 | 87 | 1007.0 |
| 20260901074403 | 64 | 135 | 0.0 | 0.0 | 0.00 | 0.00 | 0.00 | 88 | 1007.0 |
| 20260901073903 | 63 | 135 | 0.0 | 0.0 | 0.00 | 0.00 | 0.00 | 88 | 1006.9 |
| 20260901073403 | 63 | 135 | 0.0 | 0.0 | 0.00 | 0.00 | 0.00 | 87 | 1006.8 |
| 20260901072903 | 63 | 135 | 0.0 | 0.0 | 0.00 | 0.00 | 0.00 | 87 | 1006.9 |
| 20260901072402 | 63 | 135 | 0.0 | 2.0 | 0.00 | 0.00 | 0.00 | 87 | 1006.8 |
| 20260901071902 | 63 | 135 | 1.0 | 2.0 | 0.00 | 0.00 | 0.00 | 88 | 1006.8 |
| 20260901071846 | 63 | 133 | 0.0 | 2.0 | 0.00 | 0.00 | 0.00 | 88 | 1006.7 |
| 20260901070903 | 63 | 133 | 0.0 | 2.0 | 0.00 | 0.00 | 0.00 | 89 | 1006.7 |
| 20260901070402 | 63 | 133 | 0.0 | 2.0 | 0.00 | 0.00 | 0.00 | 89 | 1006.6 |
| 20260901065903 | 62 | 133 | 0.0 | 1.0 | 0.00 | 0.00 | 0.00 | 89 | 1006.6 |
| 20260901065402 | 62 | 266 | 0.0 | 0.0 | 0.00 | 0.00 | 0.00 | 90 | 1006.6 |
| 20260901065351 | 62 | 266 | 0.0 | 0.0 | 0.00 | 0.00 | 0.00 | 89 | 1006.6 |
| 20260901064402 | 62 | 266 | 0.0 | 0.0 | 0.00 | 0.00 | 0.00 | 90 | 1006.5 |
| 20260901063902 | 62 | 266 | 0.0 | 0.0 | 0.00 | 0.00 | 0.00 | 90 | 1006.5 |
| 20260901063402 | 62 | 266 | 0.0 | 0.0 | 0.00 | 0.00 | 0.00 | 90 | 1006.5 |
| 20260901063129 | 62 | 266 | 0.0 | 0.0 | 0.00 | 0.00 | 0.00 | 90 | 1006.5 |
| 20260901062403 | 62 | 266 | 0.0 | 0.0 | 0.00 | 0.00 | 0.00 | 90 | 1006.4 |
| 20260901061902 | 62 | 266 | 0.0 | 0.0 | 0.00 | 0.00 | 0.00 | 91 | 1006.4 |
| 20260901061402 | 62 | 266 | 0.0 | 0.0 | 0.00 | 0.00 | 0.00 | 91 | 1006.3 |
| 20260901060902 | 61 | 266 | 0.0 | 0.0 | 0.00 | 0.00 | 0.00 | 91 | 1006.3 |
| 20260901060824 | 61 | 266 | 0.0 | 1.0 | 0.00 | 0.00 | 0.00 | 91 | 1006.4 |
| 20260901055402 | 61 | 266 | 1.0 | 2.0 | 0.00 | 0.00 | 0.00 | 91 | 1006.4 |
| 20260901054902 | 61 | 266 | 0.0 | 2.0 | 0.00 | 0.00 | 0.00 | 91 | 1006.4 |
| 20260901054402 | 61 | 266 | 0.0 | 2.0 | 0.00 | 0.00 | 0.00 | 92 | 1006.4 |
| 20260901053902 | 61 | 266 | 0.0 | 2.0 | 0.00 | 0.00 | 0.00 | 92 | 1006.5 |
| 20260901053402 | 61 | 226 | 0.0 | 2.0 | 0.00 | 0.00 | 0.00 | 93 | 1006.4 |
| 20260901052903 | 61 | 226 | 0.0 | 2.0 | 0.00 | 0.00 | 0.00 | 93 | 1006.4 |
| 20260901052403 | 61 | 226 | 0.0 | 2.0 | 0.00 | 0.00 | 0.00 | 93 | 1006.4 |
| 20260901051902 | 61 | 221 | 0.0 | 2.0 | 0.00 | 0.00 | 0.00 | 94 | 1006.4 |
| 20260901051624 | 61 | 245 | 1.0 | 1.0 | 0.00 | 0.00 | 0.00 | 94 | 1006.3 |